Regional Weather Roundup
Issued by NWS Sioux Falls, SD

Home | Current Version | Previous Version | Text Only | Print | Product List | Glossary On
Versions: 1 2 3 4 5 6 7 8 9 10 11 12 13 14 15 16 17 18 19 20 21 22 23 24 25 26 27 28 29 30 31 32 33 34 35 36 37 38 39 40 41 42 43 44 45 46 47 48 49 50
000
ASUS43 KFSD 291102
RWRFSD

WEATHER ROUNDUP FOR SE SOUTH DAKOTA/SW MINNESOTA/NW IOWA
NATIONAL WEATHER SERVICE SIOUX FALLS SD
600 AM CDT SAT AUG 29 2015

NOTE: "FAIR" INDICATES FEW OR NO CLOUDS BELOW 12,000 FEET WITH NO
SIGNIFICANT WEATHER AND OR OBSTRUCTIONS TO VISIBILITY.


SDZ038>040-050-052>070-291200-
SOUTHEAST SOUTH DAKOTA

CITY           SKY/WX    TMP DP  RH WIND       PRES   REMARKS
BROOKINGS      CLEAR     54  50  87 SE3       30.05S VSB 1
CHAMBERLAIN    CLEAR     60  60 100 SE5       30.02R
HURON          CLEAR     59  58  96 S8        30.00S
MADISON        FOG       54  54 100 S6        30.04R VSB 1/2
MITCHELL       CLEAR     58  57  97 S7        30.03R
SIOUX FALLS    CLEAR     52  50  93 CALM      30.04S
WINNER         FAIR      65  60  84 SW12      30.02R
YANKTON          N/A     54  52  94 S3        30.04S VSB 1/4
$$

MNZ071-072-080-081-089-090-097-098-291200-
SOUTHWEST MINNESOTA

CITY           SKY/WX    TMP DP  RH WIND       PRES   REMARKS
FAIRMONT       CLOUDY    55  52  88 N5        30.03R VSB 1/2
JACKSON        FOG       57  55  94 NE3       30.05R VSB 1/2
LUVERNE        FOG       52  50  93 CALM      30.05S VSB 1/4
MARSHALL       CLEAR     54  48  82 S5        30.03R
MONTEVIDEO     CLEAR     54  54 100 CALM      30.04R
PIPESTONE      FOG       50  48  93 CALM      30.04S VSB 1
REDWOOD FALLS  FOG       50  50 100 S3        30.04R VSB 1/4
TRACY          CLEAR     56  55  97 S6        30.04S
WINDOM         FOG       55  55 100 CALM      30.05R VSB 1
WORTHINGTON    CLOUDY    52  48  87 CALM      30.05S VSB 1/4
$$

IAZ001>003-012>014-020>022-031-032-NEZ013-014-SDZ071-291200-
NORTHWEST IOWA

CITY           SKY/WX    TMP DP  RH WIND       PRES   REMARKS
DENISON        CLOUDY    59  59 100 N6        30.01R FOG
ESTHERVILLE    FOG       56  56 100 N5        30.04R VSB 1/2
SIOUX CITY     CLOUDY    61  56  83 NE3       30.04R
SPENCER        FOG       57  55  93 N6        30.04S VSB 1/2
$$

ABBREVIATIONS USED IN REMARKS
   TC - TEMPERATURE IN CELSIUS
  WCI - WIND CHILL INDEX
   HX - HEAT INDEX
  VSB - VISIBILITY



USA.gov is the U.S. government's official web portal to all federal, state and local government web resources and services.